Location: Aubervilles
(48.9167°N, 2.3833°E)
Time: 10:34:11
(UTC+00:00)

Genesis I - Pass Details

Date: 03 February 2023
Orbit: 466 x 515 km, 64.5° (Epoch: 28 March)

Event Time Altitude Azimuth Distance (km) Brightness Sun altitude
Rises 18:50:49 0° 212° (SSW) 2,640 7.3 -19.9°
Reaches altitude 10° 18:52:59 10° 211° (SSW) 1,759 6.3 -20.2°
Maximum altitude 18:56:55 73° 127° (SE) 554 3.1 -20.9°
Enters shadow 18:57:06 71° 100° (E) 560 3.0 -20.9°
